User: anonymous   Login
Location: Branche des Alpilles
(43.6087°N, 4.6976°E)
Time: 18:35:10
(UTC+00:00)
Language:

FENGYUN 1C DEB - Orbit

View from above orbital plane
View from above orbital plane
View from above satellite
View from above satellite

Ground track
Ground track

The orbit data is extracted from the following two-line orbital elements,

1 31935U 99025CML 21172.56205192  .00000480  00000-0  25104-3 0  9996
2 31935  99.7070 305.2286 0070630 101.6345 259.2766 14.18462535721889
Epoch (UTC): 21 June 2021 13:29:21
Eccentricity: 0.0070630
inclination: 99.7070°
perigee height: 779 km
apogee height: 881 km
right ascension of ascending node: 305.2286°
argument of perigee: 101.6345°
revolutions per day: 14.18462535
mean anomaly at epoch: 259.2766°
orbit number at epoch: 72188

The dashed part of the orbit path shows where the satellite is in the earth's shadow,  

DLR